KC8OLT Weather Reports


time (UTC)temp
F
wind
direction
speed
knots
gust
knots
rain 1hr
in
rain 24hr
in
rain mn
in
humidity
%
barometer
mb
20260505114445 37 237 6.1 6.1 0.00 0.00 0.00 81 1008.0
20260505113946 37 236 5.2 6.1 0.00 0.00 0.00 82 1007.0
20260505113444 37 343 2.6 5.2 0.00 0.00 0.00 82 1007.0
20260505112944 37 252 3.5 5.2 0.00 0.00 0.00 83 1007.0
20260505112445 37 281 4.3 4.3 0.00 0.00 0.00 82 1007.0
20260505111945 37 318 5.2 6.1 0.00 0.00 0.00 81 1007.0
20260505111444 37 290 8.7 13.9 0.00 0.00 0.00 81 1007.0
20260505110944 37 275 6.1 7.0 0.00 0.00 0.00 80 1007.0
20260505110444 37 277 7.0 7.0 0.00 0.00 0.00 80 1007.0
20260505101945 37 271 3.5 7.0 0.00 0.00 0.00 82 1007.0
20260505101444 37 281 2.6 3.5 0.00 0.00 0.00 81 1007.0
20260505100944 37 237 2.6 6.1 0.00 0.00 0.00 82 1007.0
20260505100445 37 266 3.5 5.2 0.00 0.00 0.00 82 1007.0
20260505095944 37 350 5.2 7.8 0.00 0.00 0.00 82 1006.0
20260505095444 37 229 7.0 7.0 0.00 0.00 0.00 82 1006.0
20260505094944 37 281 4.3 4.3 0.00 0.00 0.00 82 1006.0
20260505094444 38 301 4.3 5.2 0.00 0.00 0.00 81 1006.0
20260505093944 38 284 5.2 5.2 0.00 0.00 0.00 80 1006.0
20260505093444 38 265 2.6 7.8 0.00 0.00 0.00 80 1006.0
20260505092945 38 319 3.5 3.5 0.00 0.00 0.00 80 1006.0
20260505092444 38 305 5.2 7.8 0.00 0.00 0.00 80 1006.0
20260505091944 38 233 1.7 2.6 0.00 0.00 0.00 79 1006.0
20260505091444 38 248 3.5 3.5 0.00 0.00 0.00 79 1006.0
20260505090948 38 214 1.7 2.6 0.00 0.00 0.00 80 1006.0
20260505090444 38 325 7.8 7.8 0.00 0.00 0.00 80 1006.0
20260505085944 38 300 2.6 3.5 0.00 0.00 0.00 81 1006.0
20260505085444 39 269 1.7 3.5 0.00 0.00 0.00 80 1006.0
20260505084944 39 105 4.3 4.3 0.00 0.00 0.00 79 1006.0
20260505084445 39 342 6.1 6.1 0.00 0.00 0.00 78 1006.0
20260505083944 39 282 3.5 5.2 0.00 0.00 0.00 79 1006.0
20260505083445 39 289 3.5 6.1 0.00 0.00 0.00 80 1006.0
20260505082944 39 321 2.6 3.5 0.00 0.00 0.00 80 1006.0
20260505082444 39 282 3.5 5.2 0.00 0.00 0.00 79 1006.0
20260505081944 39 276 4.3 4.3 0.00 0.00 0.00 79 1006.0
20260505081444 39 275 6.1 6.1 0.00 0.00 0.00 79 1005.0
20260505080945 39 275 3.5 3.5 0.00 0.00 0.00 79 1006.0
20260505080445 39 279 3.5 3.5 0.00 0.00 0.00 79 1005.0
20260505075944 39 229 3.5 3.5 0.00 0.00 0.00 79 1006.0
20260505075444 39 233 4.3 4.3 0.00 0.00 0.00 79 1005.0
20260505074944 39 356 4.3 4.3 0.00 0.00 0.00 79 1006.0
20260505074444 39 47 3.5 5.2 0.00 0.00 0.00 79 1006.0
20260505073945 39 252 2.6 3.5 0.00 0.00 0.00 79 1006.0
20260505073444 39 327 4.3 5.2 0.00 0.00 0.00 79 1006.0
20260505072944 39 267 4.3 4.3 0.00 0.00 0.00 79 1006.0
20260505072446 39 220 1.7 5.2 0.00 0.00 0.00 79 1006.0
20260505071944 39 292 3.5 3.5 0.00 0.00 0.00 79 1006.0
20260505071448 39 236 5.2 7.0 0.00 0.00 0.00 78 1006.0
20260505070944 39 303 6.1 6.1 0.00 0.00 0.00 78 1006.0
20260505070445 39 292 6.1 7.0 0.00 0.00 0.00 78 1006.0
20260505065944 39 211 3.5 7.0 0.00 0.00 0.00 78 1006.0
20260505065445 39 262 4.3 5.2 0.00 0.00 0.00 79 1006.0
20260505064945 39 272 3.5 4.3 0.00 0.00 0.00 81 1006.0
20260505064444 39 303 3.5 5.2 0.00 0.00 0.00 81 1006.0
20260505063944 39 321 2.6 3.5 0.00 0.00 0.00 82 1006.0
20260505063445 39 235 3.5 5.2 0.00 0.00 0.00 82 1006.0
20260505062945 39 297 2.6 4.3 0.00 0.00 0.00 82 1006.0
20260505062445 39 258 8.7 8.7 0.00 0.00 0.00 82 1006.0
20260505061944 39 255 5.2 5.2 0.00 0.00 0.00 82 1006.0
20260505061444 39 268 5.2 5.2 0.00 0.00 0.00 82 1006.0
20260505060945 39 272 1.7 3.5 0.00 0.00 0.00 82 1006.0
20260505060444 39 299 4.3 4.3 0.00 0.00 0.00 83 1006.0
20260505055944 39 229 3.5 3.5 0.00 0.00 0.00 83 1006.0
20260505055444 39 236 3.5 4.3 0.00 0.00 0.00 83 1006.0
20260505054944 39 265 2.6 3.5 0.00 0.00 0.00 83 1006.0
20260505054444 38 287 4.3 6.1 0.00 0.00 0.00 84 1006.0
20260505053944 38 332 6.1 6.1 0.00 0.00 0.00 85 1006.0
20260505053445 38 139 2.6 4.3 0.00 0.00 0.00 86 1006.0
20260505052944 38 274 6.1 6.1 0.00 0.00 0.00 86 1006.0
20260505052444 38 322 3.5 4.3 0.00 0.00 0.00 86 1006.0
20260505051944 38 273 2.6 4.3 0.00 0.00 0.00 87 1005.0
20260505051444 38 63 2.6 2.6 0.00 0.00 0.00 87 1005.0
20260505050944 38 220 5.2 7.0 0.00 0.00 0.00 87 1005.0
20260505050444 38 275 4.3 4.3 0.00 0.00 0.00 87 1005.0
20260505041445 40 275 7.0 7.0 0.00 0.00 0.00 78 1005.0
20260505040944 40 312 4.3 5.2 0.00 0.00 0.00 76 1005.0
20260505040445 40 258 7.0 7.0 0.00 0.00 0.00 76 1005.0
20260505035944 41 308 6.1 8.7 0.00 0.00 0.04 75 1005.0
20260505035444 41 288 4.3 5.2 0.00 0.00 0.04 74 1005.0
20260505034945 41 312 3.5 3.5 0.00 0.00 0.04 74 1005.0
20260505034444 41 320 4.3 5.2 0.00 0.00 0.04 73 1005.0
20260505033944 41 329 4.3 5.2 0.00 0.00 0.04 73 1005.0
20260505033444 41 121 3.5 5.2 0.00 0.00 0.04 72 1004.0
20260505032944 42 341 5.2 5.2 0.00 0.00 0.04 71 1004.0
20260505032444 42 284 4.3 7.0 0.00 0.00 0.04 70 1004.0
20260505031944 42 305 5.2 6.1 0.00 0.00 0.04 69 1004.0
20260505031444 42 262 4.3 4.3 0.00 0.00 0.04 68 1004.0
20260505030944 42 255 3.5 5.2 0.00 0.00 0.04 68 1004.0
20260505030444 42 199 3.5 3.5 0.00 0.00 0.04 69 1004.0
20260505025945 42 239 3.5 3.5 0.00 0.00 0.04 71 1004.0
20260505025445 42 296 1.7 3.5 0.00 0.00 0.04 72 1004.0
20260505024944 41 301 3.5 7.8 0.00 0.00 0.04 73 1004.0
20260505024444 41 1 3.5 7.8 0.00 0.00 0.04 74 1004.0
20260505023948 41 7 3.5 4.3 0.00 0.00 0.04 75 1004.0
20260505023020 41 294 5.2 5.2 0.00 0.00 0.04 77 1004.0
20260505022444 41 270 5.2 5.2 0.00 0.00 0.04 78 1004.0
20260505021944 41 298 6.1 7.8 0.00 0.00 0.04 77 1004.0
20260505021444 41 303 5.2 5.2 0.00 0.00 0.04 77 1004.0
20260505020944 41 313 5.2 5.2 0.00 0.00 0.04 77 1004.0
20260505020445 42 294 4.3 5.2 0.00 0.00 0.04 76 1004.0
20260505015944 42 309 4.3 4.3 0.00 0.00 0.04 74 1004.0
20260505015444 42 325 3.5 7.0 0.00 0.00 0.04 72 1004.0
20260505014944 42 318 7.8 7.8 0.00 0.00 0.04 73 1003.0
20260505014444 42 261 5.2 7.0 0.00 0.00 0.04 73 1004.0
20260505013944 42 279 7.0 7.0 0.00 0.00 0.04 74 1003.0
20260505013444 42 263 4.3 7.8 0.00 0.00 0.04 73 1003.0
20260505012945 43 302 4.3 7.0 0.00 0.00 0.04 72 1003.0
20260505012444 43 315 10.4 10.4 0.00 0.00 0.04 69 1003.0
20260505011944 43 269 7.0 7.0 0.00 0.00 0.04 69 1003.0
20260505011445 43 259 5.2 7.8 0.00 0.00 0.04 68 1003.0
20260505010945 43 328 14.8 14.8 0.00 0.00 0.04 67 1003.0
20260505010444 44 292 3.5 5.2 0.00 0.00 0.04 68 1003.0
20260505005944 44 321 6.1 10.4 0.00 0.00 0.04 67 1003.0
20260505005445 44 204 5.2 5.2 0.00 0.00 0.04 67 1003.0
20260505004944 44 289 5.2 5.2 0.00 0.00 0.04 67 1003.0
20260505004444 44 348 3.5 8.7 0.00 0.00 0.04 67 1003.0
20260505003944 44 250 3.5 4.3 0.00 0.00 0.04 67 1003.0
20260505003444 45 265 5.2 5.2 0.00 0.00 0.04 65 1002.0
20260505002945 45 260 1.7 2.6 0.00 0.00 0.04 67 1002.0
20260505002444 45 276 2.6 2.6 0.00 0.00 0.04 68 1002.0
20260505001945 45 301 3.5 4.3 0.00 0.00 0.04 67 1002.0
20260505001444 45 342 1.7 2.6 0.00 0.00 0.04 67 1002.0
20260505000944 45 310 5.2 8.7 0.00 0.00 0.04 66 1002.0
20260505000445 45 235 3.5 7.8 0.00 0.00 0.04 68 1002.0
20260504235944 45 268 3.5 4.3 0.00 0.00 0.04 70 1002.0
20260504235444 44 263 5.2 8.7 0.00 0.00 0.04 70 1002.0
20260504234944 45 4 4.3 4.3 0.00 0.00 0.04 69 1002.0
20260504234444 45 313 5.2 7.0 0.00 0.00 0.04 68 1002.0
20260504233944 45 271 9.6 9.6 0.00 0.00 0.04 68 1002.0
20260504233445 46 322 6.1 6.1 0.00 0.00 0.04 67 1002.0
20260504232944 46 325 3.5 4.3 0.00 0.00 0.04 69 1002.0
20260504232444 45 201 5.2 7.0 0.00 0.00 0.04 70 1002.0
20260504231944 47 259 5.2 6.1 0.00 0.00 0.04 68 1002.0
20260504231444 47 289 5.2 7.0 0.00 0.00 0.04 64 1002.0
20260504230944 46 258 8.7 8.7 0.00 0.00 0.04 65 1002.0
20260504230444 46 340 4.3 6.1 0.00 0.00 0.04 65 1002.0
20260504225944 48 302 4.3 7.8 0.00 0.00 0.04 62 1002.0
20260504225445 49 333 5.2 9.6 0.00 0.00 0.04 58 1002.0
20260504224945 50 323 7.8 12.2 0.00 0.00 0.04 56 1001.0
20260504224444 50 284 4.3 6.1 0.00 0.00 0.04 56 1001.0
20260504223944 50 243 4.3 5.2 0.00 0.00 0.04 58 1001.0
20260504223445 49 302 7.8 9.6 0.00 0.00 0.04 60 1001.0
20260504222944 49 290 4.3 4.3 0.00 0.00 0.04 60 1001.0
20260504222444 50 314 7.0 7.0 0.00 0.00 0.04 60 1001.0
20260504221945 50 323 7.0 7.0 0.00 0.00 0.04 59 1001.0
20260504221444 50 242 4.3 11.3 0.00 0.00 0.04 59 1001.0
20260504220945 49 237 3.5 9.6 0.00 0.00 0.04 61 1001.0
20260504220444 49 333 7.0 10.4 0.00 0.00 0.04 60 1001.0
20260504215944 49 275 7.0 7.0 0.00 0.00 0.04 61 1000.0
20260504215444 49 254 8.7 8.7 0.00 0.00 0.04 60 1000.0
20260504214944 49 257 7.0 15.6 0.00 0.00 0.04 61 1000.0
20260504214444 49 304 5.2 7.8 0.00 0.00 0.04 61 1000.0
20260504213944 49 311 5.2 9.6 0.00 0.00 0.04 64 1000.0
20260504213444 49 299 7.0 12.2 0.00 0.00 0.04 62 1000.0
20260504212945 50 322 6.1 7.0 0.00 0.00 0.04 60 1000.0
20260504212444 50 280 6.1 9.6 0.00 0.00 0.04 61 1000.0
20260504211944 50 332 6.1 6.1 0.00 0.00 0.04 62 1000.0
20260504211444 50 242 7.0 8.7 0.00 0.00 0.04 63 1000.0
20260504210944 49 270 5.2 7.8 0.00 0.00 0.04 63 1000.0
20260504210444 50 324 4.3 5.2 0.00 0.00 0.04 64 1000.0
20260504205945 50 289 7.0 7.8 0.00 0.00 0.04 62 999.0
20260504205445 50 323 6.1 8.7 0.00 0.00 0.04 62 999.0
20260504204945 51 315 4.3 8.7 0.00 0.00 0.04 61 999.0
20260504204444 51 285 5.2 5.2 0.00 0.00 0.04 60 999.0
20260504203944 51 281 9.6 9.6 0.00 0.00 0.04 60 999.0
20260504203444 52 327 5.2 9.6 0.00 0.00 0.04 58 999.0
20260504202945 52 227 2.6 11.3 0.00 0.00 0.04 59 999.0
20260504202444 52 260 6.1 6.1 0.00 0.00 0.04 59 999.0
20260504201947 53 302 6.1 13.0 0.00 0.00 0.04 56 999.0
20260504201445 52 279 5.2 9.6 0.00 0.00 0.04 59 999.0
20260504200945 51 247 7.0 7.0 0.00 0.00 0.04 61 999.0
20260504200444 51 259 3.5 5.2 0.00 0.00 0.04 61 999.0
20260504195944 52 293 7.8 7.8 0.00 0.00 0.04 59 999.0
20260504195444 53 325 6.1 12.2 0.00 0.00 0.04 55 999.0
20260504194944 53 195 8.7 8.7 0.00 0.00 0.04 56 999.0
20260504194444 52 168 9.6 9.6 0.00 0.00 0.04 58 999.0
20260504193945 52 279 5.2 10.4 0.00 0.00 0.04 59 999.0
20260504193445 52 288 6.1 9.6 0.00 0.00 0.04 60 999.0
20260504192944 52 327 7.8 7.8 0.00 0.00 0.04 60 999.0
20260504192445 52 312 6.1 7.0 0.00 0.00 0.04 61 998.0
20260504191944 51 235 12.2 12.2 0.00 0.00 0.04 62 998.0
20260504191444 51 236 7.0 7.0 0.00 0.00 0.04 64 998.0
20260504190944 51 301 6.1 13.0 0.00 0.00 0.04 60 998.0
20260504190444 51 297 8.7 8.7 0.00 0.00 0.04 59 998.0
20260504185944 52 82 3.5 7.8 0.00 0.00 0.04 61 998.0
20260504185445 52 243 7.0 7.0 0.00 0.00 0.04 59 998.0
20260504184945 51 264 7.0 8.7 0.00 0.00 0.04 60 998.0
20260504184444 51 55 8.7 11.3 0.00 0.00 0.04 63 998.0
20260504183945 50 264 6.1 7.0 0.00 0.00 0.04 63 998.0
20260504183444 50 106 4.3 6.1 0.00 0.00 0.04 65 998.0
20260504182945 50 231 5.2 6.1 0.00 0.00 0.04 65 998.0
20260504182444 50 311 5.2 11.3 0.00 0.00 0.04 63 998.0
20260504181945 51 231 5.2 7.8 0.00 0.00 0.04 63 998.0
20260504181444 52 325 3.5 6.1 0.00 0.00 0.04 63 998.0
20260504180944 52 305 7.0 7.0 0.00 0.00 0.04 63 997.0
20260504180444 52 267 6.1 7.8 0.00 0.00 0.04 61 997.0
20260504175946 52 229 6.1 6.1 0.00 0.00 0.04 60 997.0
20260504175444 54 278 6.1 6.1 0.00 0.00 0.04 58 997.0
20260504174944 54 272 7.8 7.8 0.00 0.00 0.04 57 997.0
20260504174444 54 56 6.1 14.8 0.00 0.00 0.04 58 997.0
20260504173944 54 0 5.2 7.8 0.00 0.00 0.04 58 997.0
20260504173444 54 305 6.1 10.4 0.00 0.00 0.04 57 997.0
20260504172944 54 270 7.0 7.0 0.00 0.00 0.04 58 997.0
20260504172444 54 6 11.3 11.3 0.00 0.00 0.04 59 997.0
20260504171945 55 254 7.8 14.8 0.00 0.00 0.04 58 997.0
20260504171444 55 251 12.2 12.2 0.00 0.00 0.04 57 996.0
20260504170945 55 312 7.0 13.9 0.00 0.00 0.04 58 996.0
20260504170445 55 340 5.2 8.7 0.00 0.00 0.04 60 996.0
20260504150944 50 248 3.5 7.8 0.03 0.00 0.04 80 995.0
20260504150445 50 247 3.5 6.1 0.04 0.00 0.04 80 995.0
20260504140626 47 163 3.5 7.8 0.00 0.00 0.01 85 995.0
20260504130444 53 278 9.6 9.6 0.00 0.00 0.00 56 994.0